This demonstration page uses our WeatherBlox Daily Observations layout. Learn more.

Hourly Observations for May 12, 2016

Temp ( °F °C ) Dew Point ( °F °C ) Humidity (%) Winds ( mph kmh ) Pressure ( in mb ) Visibility ( mi km ) Precip ( " mm )
12:15 am 00:15 Cloudy 59 15 59 15 100 100 Calm 30.15 1021 7 11.26538 0 0
12:35 am 00:35 Cloudy 59 15 59 15 100 100 Calm 30.15 1021 7 11.26538 0 0
12:55 am 00:55 Cloudy 59 15 59 15 100 100 Calm 30.15 1021 7 11.26538 0 0
1:15 am 01:15 Cloudy 59 15 59 15 100 100 Calm 30.15 1021 7 11.26538 0 0
1:35 am 01:35 Cloudy with Mist and Fog 59 15 59 15 100 100 Calm 30.15 1021 5 8.0467 0 0
1:55 am 01:55 Cloudy 59 15 59 15 100 100 W 3 6 30.15 1021 7 11.26538 0 0
2:15 am 02:15 Cloudy with Mist and Fog 59 15 59 15 100 100 Calm 30.15 1021 5 8.0467 0 0
2:35 am 02:35 Cloudy with Mist and Fog 59 15 59 15 100 100 Calm 30.15 1021 5 8.0467 0 0
2:55 am 02:55 Cloudy 59 15 59 15 100 100 Calm 30.15 1021 7 11.26538 0 0
3:15 am 03:15 Cloudy 59 15 59 15 100 100 Calm 30.15 1021 7 11.26538 0 0
3:35 am 03:35 Cloudy 59 15 59 15 100 100 SW 7 11 30.15 1021 7 11.26538 0 0
3:55 am 03:55 Cloudy 59 15 59 15 100 100 Calm 30.15 1021 7 11.26538 0 0
4:15 am 04:15 Cloudy with Mist and Fog 59 15 59 15 100 100 Calm 30.12 1020 5 8.0467 0 0
4:35 am 04:35 Cloudy with Mist and Fog 59 15 59 15 100 100 N 3 6 30.15 1021 4 6.43736 0 0
4:50 am 04:50 Cloudy with Mist and Fog 59 15 59 15 100 100 Calm 30.12 1020 4 6.43736 0 0
5:15 am 05:15 Cloudy with Mist and Fog 57 14 57 14 100 100 Calm 30.12 1020 3 4.82802 0 0
5:35 am 05:35 Cloudy with Mist and Fog 57 14 57 14 100 100 Calm 30.12 1020 2.5 4.02335 0 0
5:55 am 05:55 Cloudy with Mist and Fog 57 14 57 14 100 100 Calm 30.15 1021 2 3.21868 0 0
6:15 am 06:15 Cloudy with Mist and Fog 57 14 57 14 100 100 Calm 30.15 1021 2.5 4.02335 0 0
6:35 am 06:35 Cloudy with Mist and Fog 57 14 57 14 100 100 Calm 30.15 1021 1.25 2.011675 0 0
6:55 am 06:55 Cloudy with Fog 57 14 57 14 100 100 Calm 30.15 1021 0.5 0.80467 0 0
7:15 am 07:15 Cloudy with Fog 57 14 57 14 100 100 Calm 30.15 1021 0.5 0.80467 0 0
7:35 am 07:35 Cloudy with Fog 57 14 57 14 100 100 Calm 30.15 1021 0.5 0.80467 0 0
7:55 am 07:55 Cloudy with Mist and Fog 57 14 57 14 100 100 ENE 3 6 30.15 1021 1 1.60934 0 0
8:15 am 08:15 Cloudy with Mist and Fog 59 15 59 15 100 100 ESE 3 6 30.15 1021 1 1.60934 0 0
8:35 am 08:35 Cloudy with Mist and Fog 59 15 59 15 100 100 Calm 30.15 1021 0.75 1.207005 0 0
8:55 am 08:55 Cloudy with Mist and Fog 59 15 59 15 100 100 E 5 7 30.15 1021 1 1.60934 0 0
9:15 am 09:15 Cloudy with Mist and Fog 59 15 59 15 100 100 Calm 30.15 1021 1.25 2.011675 0 0
9:35 am 09:35 Cloudy with Mist and Fog 59 15 59 15 100 100 SSW 8 13 30.15 1021 3 4.82802 0 0
9:55 am 09:55 Cloudy with Mist and Fog 59 15 59 15 100 100 SW 3 6 30.15 1021 1.5 2.41401 0 0
10:15 am 10:15 Cloudy with Mist and Fog 59 15 59 15 100 100 SW 3 6 30.15 1021 2 3.21868 0 0
10:35 am 10:35 Cloudy with Mist and Fog 59 15 59 15 100 100 Calm 30.15 1021 2.5 4.02335 0 0
10:55 am 10:55 Cloudy with Mist and Fog 61 16 61 16 100 100 SSE 3 6 30.15 1021 4 6.43736 0 0
11:15 am 11:15 Cloudy 61 16 61 16 100 100 ESE 5 7 30.15 1021 7 11.26538 0 0
11:35 am 11:35 Cloudy with Mist and Fog 63 17 63 17 100 100 Calm 30.15 1021 5 8.0467 0 0
11:55 am 11:55 Cloudy 63 17 61 16 94 94 SSE 3 6 30.15 1021 7 11.26538 0 0
12:15 pm 12:15 Cloudy with Mist and Fog 63 17 63 17 100 100 Calm 30.15 1021 5 8.0467 0 0
12:35 pm 12:35 Cloudy 63 17 63 17 100 100 S 5 7 30.15 1021 7 11.26538 0 0
12:55 pm 12:55 Cloudy 63 17 63 17 100 100 SSE 5 7 30.12 1020 7 11.26538 0 0
1:15 pm 13:15 Cloudy 64 18 63 17 94 94 Calm 30.12 1020 7 11.26538 0 0
1:35 pm 13:35 Cloudy 64 18 63 17 94 94 SSW 8 13 30.12 1020 7 11.26538 0 0
1:55 pm 13:55 Cloudy 66 19 63 17 88 88 S 5 7 30.12 1020 10 16.0934 0 0
2:15 pm 14:15 Cloudy 66 19 63 17 88 88 S 8 13 30.12 1020 10 16.0934 0 0
2:35 pm 14:35 Cloudy 68 20 63 17 83 83 SE 3 6 30.09 1019 10 16.0934 0 0
2:55 pm 14:55 Cloudy 68 20 63 17 83 83 S 6 9 30.09 1019 10 16.0934 0 0
3:15 pm 15:15 Cloudy 70 21 63 17 78 78 S 7 11 30.09 1019 10 16.0934 0 0
3:35 pm 15:35 Cloudy 68 20 63 17 83 83 S 7 11 30.06 1018 10 16.0934 0 0
3:55 pm 15:55 Cloudy 70 21 63 17 78 78 S 9 15 30.06 1018 10 16.0934 0 0
4:15 pm 16:15 Cloudy 70 21 63 17 78 78 S 8 13 30.06 1018 10 16.0934 0 0
4:35 pm 16:35 Cloudy 70 21 63 17 78 78 S 8 13 30.06 1018 10 16.0934 0 0
4:55 pm 16:55 Cloudy 68 20 63 17 83 83 SSW 10 17 30.06 1018 10 16.0934 0 0
5:15 pm 17:15 Cloudy 68 20 63 17 83 83 S 6 9 30.06 1018 10 16.0934 0 0
5:35 pm 17:35 Cloudy 68 20 63 17 83 83 S 8 13 30.06 1018 10 16.0934 0 0
5:55 pm 17:55 Cloudy 68 20 63 17 83 83 S 8 13 30.03 1017 10 16.0934 0 0
6:15 pm 18:15 Cloudy 66 19 63 17 88 88 S 7 11 30.06 1018 10 16.0934 0 0
6:35 pm 18:35 Cloudy 66 19 63 17 88 88 SSE 7 11 30.03 1017 10 16.0934 0 0
6:55 pm 18:55 Cloudy 66 19 63 17 88 88 SSE 7 11 30.03 1017 10 16.0934 0 0
7:15 pm 19:15 Cloudy 64 18 63 17 94 94 S 8 13 30.03 1017 10 16.0934 0 0
7:35 pm 19:35 Cloudy 64 18 63 17 94 94 SSE 7 11 30.03 1017 10 16.0934 0 0
7:55 pm 19:55 Cloudy 64 18 63 17 94 94 SSE 7 11 30.03 1017 10 16.0934 0 0
8:15 pm 20:15 Cloudy 64 18 63 17 94 94 SSE 6 9 30.03 1017 10 16.0934 0 0
8:35 pm 20:35 Cloudy 64 18 63 17 94 94 SSE 7 11 30.03 1017 10 16.0934 0 0
8:55 pm 20:55 Cloudy 64 18 63 17 94 94 SSE 7 11 30.03 1017 10 16.0934 0 0
9:15 pm 21:15 Cloudy with Mist and Fog 63 17 63 17 100 100 SSE 7 11 30.03 1017 5 8.0467 0 0
9:35 pm 21:35 Cloudy with Mist and Fog 63 17 63 17 100 100 SSE 6 9 30.03 1017 4 6.43736 0 0
9:55 pm 21:55 Cloudy with Mist and Fog 63 17 63 17 100 100 SSE 6 9 30.03 1017 4 6.43736 0 0
10:15 pm 22:15 Cloudy with Mist and Fog 63 17 63 17 100 100 SSE 6 9 30.03 1017 5 8.0467 0 0
10:35 pm 22:35 Cloudy with Mist and Fog 63 17 63 17 100 100 SSE 6 9 30.03 1017 5 8.0467 0 0
10:55 pm 22:55 Cloudy with Mist and Fog 63 17 63 17 100 100 SSE 9 15 30 1016 4 6.43736 0 0
11:15 pm 23:15 Cloudy with Mist and Fog 63 17 63 17 100 100 SSE 6 9 30 1016 3 4.82802 0 0
11:35 pm 23:35 Cloudy with Mist and Fog 63 17 63 17 100 100 SSE 6 9 30 1016 3 4.82802 0 0
11:55 pm 23:55 Cloudy with Mist and Fog 63 17 63 17 100 100 SSE 7 11 30 1016 2 3.21868 0 0

Powered by AerisWeather